Lid_Strength_Index
2 2 1 1 1 0 0 0 1 0 0 0 0 0 0 -0 -1 -1 -1 -1 -0 0 -0 -0 -0 0 1 1 1 1 2 4 3 4 4 4 3 2 2 2 2 2 2
3 2 2 1 1 1 1 1 1 0 -0 -0 -0 -0 -0 -1 -1 -1 -0 -0 -0 0 1 0 0 0 1 1 2 2 3 4 3 5 5 7 6 4 3 3 3 2 3
4 3 3 2 1 1 1 1 0 -0 -0 -1 -1 -0 -1 -1 -0 0 0 0 0 0 0 0 1 1 2 3 2 3 3 5 4 4 6 8 9 7 5 4 4 2 4
3 3 3 2 2 1 0 0 -0 -0 -0 -1 -0 -0 0 1 1 1 1 0 0 0 1 2 2 2 2 3 3 3 4 4 6 5 5 4 5 8 9 6 5 5 5
3 3 2 2 1 1 0 -0 -0 1 -1 -1 -1 -0 1 1 1 1 2 1 2 3 4 4 4 3 3 3 3 3 4 4 5 5 6 6 6 6 8 10 8 6 5
3 2 2 1 1 1 1 1 1 0 -0 0 0 1 2 3 3 4 5 5 5 5 5 5 4 4 3 3 3 3 4 4 5 5 5 6 7 8 8 8 7 6 4
3 3 3 2 2 2 1 1 1 1 1 2 2 3 4 5 6 6 7 6 6 6 5 4 4 4 4 3 4 4 4 4 5 5 6 6 6 5 5 6 6 5 4
3 3 3 2 2 2 2 2 2 2 3 4 4 5 5 6 6 6 5 6 6 5 5 5 4 4 4 4 4 4 4 4 5 5 5 5 4 4 4 4 4 5 4
3 3 2 2 2 2 2 2 2 3 4 4 5 5 5 6 6 6 5 6 5 5 5 5 5 4 4 4 3 4 4 4 4 4 4 4 3 3 2 2 2 3 6
3 3 2 2 2 2 2 2 3 4 4 5 5 6 6 6 5 5 5 5 5 5 6 5 5 4 4 3 3 4 4 4 4 4 3 3 2 1 1 2 2 2 4
3 3 2 2 2 2 3 4 4 4 5 6 6 5 5 6 5 5 5 5 5 6 6 6 5 5 4 4 4 4 4 4 4 3 3 2 1 2 2 1 2 3 3
3 3 2 2 3 3 4 4 4 5 5 6 6 5 6 5 5 5 5 5 6 6 6 5 5 5 5 4 5 5 5 3 3 3 2 2 2 2 2 2 3 3 3
3 3 3 3 3 4 4 5 5 5 6 6 5 6 6 5 5 5 5 6 6 6 5 5 5 5 5 5 4 4 4 3 3 2 2 2 2 3 3 3 4 4 5
3 3 3 3 3 4 5 5 5 5 5 6 6 6 5 5 5 5 6 6 6 6 6 5 5 5 5 5 5 4 4 3 2 1 2 2 3 4 4 6 6 6 6
4 3 3 3 4 4 5 5 4 4 5 6 6 6 5 5 6 6 6 6 6 6 6 5 5 5 5 6 6 4 4 3 2 2 2 3 4 6 6 6 6 7 7
4 3 3 3 4 4 5 5 4 5 5 6 6 5 6 6 6 6 6 6 6 6 6 5 5 5 5 9 8 7 4 3 3 4 4 4 4 5 6 6 6 7 8
4 3 3 3 3 4 4 4 5 5 5 6 6 6 6 7 7 7 7 7 6 6 6 6 5 5 5 8 8 8 4 3 3 4 4 5 5 5 5 6 6 6 6
3 3 2 2 2 3 4 5 5 5 6 6 7 7 7 8 7 7 7 7 6 6 6 6 5 5 7 8 8 8 4 3 4 4 4 5 5 6 7 8 7 7 6
2 2 2 2 2 3 4 5 6 6 7 7 7 8 8 8 8 8 7 7 6 6 6 6 6 5 6 8 8 7 4 4 4 4 5 5 7 8 8 8 8 8 7
2 2 2 1 2 4 5 6 7 7 8 8 8 8 8 8 8 8 7 6 6 7 6 6 5 7 5 8 8 7 4 5 5 5 5 7 8 9 9 8 9 9 8
2 2 2 3 4 5 6 6 8 8 9 9 8 8 8 8 8 8 7 7 6 6 6 6 5 4 5 5 7 7 6 5 5 6 6 6 8 8 9 8 8 8 8
2 3 4 5 6 6 7 9 9 9 9 9 9 8 8 8 8 7 7 6 7 6 6 5 5 4 4 6 7 7 7 6 6 6 6 6 8 8 9 8 8 9 8
4 5 7 8 8 9 10 10 9 9 9 9 9 8 8 7 7 8 7 7 6 5 5 5 5 5 3 3 6 6 7 7 7 6 6 8 7 8 7 7 8 8 7
7 8 8 9 10 9 9 9 9 9 9 9 10 9 8 8 8 8 6 5 5 5 5 5 5 4 3 3 3 5 5 6 6 6 5 6 7 7 8 7 6 6 7
8 9 10 11 10 10 9 9 9 9 10 10 9 8 8 8 8 7 6 5 4 4 4 4 4 3 3 3 3 3 4 4 5 6 6 6 6 6 6 6 6 6 7
10 10 10 10 10 10 9 9 8 9 10 9 9 8 8 7 6 5 5 5 5 5 6 6 5 2 4 5 5 5 6 6 6 7 6 6 6 6 7 7 7 6 7